Location: Alafon
(8.4500°N, 4.2333°E)
Time: 16:55:31
(UTC+00:00)

Transit 2A - Pass Details

Date: 08 August 2021
Orbit: 595 x 964 km, 66.7° (Epoch: 18 September)

Event Time Altitude Azimuth Distance (km) Brightness Sun altitude
Rises 02:46:24 0° 195° (SSW) 2,870 - -39.7°
Reaches altitude 10° 02:48:41 10° 193° (SSW) 1,941 - -39.2°
Maximum altitude 02:52:58 68° 110° (ESE) 639 - -38.2°
Drops below altitude 10° 02:57:14 10° 27° (NNE) 1,930 - -37.3°
Exits shadow 02:57:15 10° 27° (NNE) 1,942 8.6 -37.3°
Sets 02:59:29 0° 25° (NNE) 2,851 9.6 -36.8°
